Location: Newark
(35.8833°N, 14.5000°E)
Time: 23:16:10
(UTC+00:00)

UNISAT 6 - Pass Details

Date: 22 May 2019
Orbit: 606 x 690 km, 97.8° (Epoch: 20 June)

Event Time Altitude Azimuth Distance (km) Brightness Sun altitude
Rises 19:35:02 0° 19° (NNE) 2,925 ? -15.9°
Reaches altitude 10° 19:37:21 10° 26° (NNE) 2,001 ? -16.2°
Maximum altitude 19:41:30 44° 99° (E) 850 ? -16.9°
Enters shadow 19:42:53 33° 145° (SE) 1,037 ? -17.1°
